CZ-3B DEB, 40165

Orbit data source: Space-Track

CZ-3B DEB, 40165 is space debris in HEO originally from a launch on Sat, 04 Sep 2010 UTC launched from the Xichang Space Center, China (XSC). Debris objects in space refer to the collection of defunct objects orbiting the Earth. Examples of debris include non-operational satellites, rocket bodies, and fragments generated from explosions, collisions, or faulty payload assembly.

Loading next visibility...
Identifier
40165, 2010-042S
Orbit
HEO
Country
Flag of CNCN / PRC
Related business
Manufacturer
CALT
Mission
Spacecraft
Bus & Motor
Unknown
Mass
Unknown
Launch date (UTC)
2010-09-04 (16 years ago)
Launch vehicle
Unknown
Launch site
Xichang Space Center, China (XSC)
Object type
Payload
Rocket body
Debris
Shape & HBR
Unknown shape, 0.2 m
Radar Cross Section
Medium (>0.1 m² and <1 m²)

Expand to show TLE details & history
Last TLE update: 2 weeks ago

TLE from 2 weeks ago
0 CZ-3B DEB
1 40165U 10042S   26222.23447424  .00003577  00000-0  27458+0 0  9994
2 40165  27.9969  98.6216 7342479 209.9122  74.9259  1.92989711104911
Epoch: 2026-08-10T05:37Z
TLE epoch observation values (Epoch: 2026-08-10T05:37:38.574Z)
Latitude
0.51379°
Longitude
56.55801°
Altitude
28,855.413 km
Speed
2.828 km/s
True Right ascension
06h 38m 45s
True Declination
0° 30' 47"
Sunlit
Object was in daylight at epoch
Visualization orbit readout
Latitude
Unknown
Longitude
Unknown
Altitude
Unknown
Speed
Unknown
Apparent Right ascension
Unknown
Apparent Declination
Unknown
Sunlit
N/A
Visualization observer readout
Local Sidereal Time
00:46:30
Azimuth
Unknown
Elevation
Unknown
Doppler factor
Unknown
Orbital elements
Apogee altitude
40,887.512 km
Perigee altitude
864.741 km
Semi-major axis
27,254.263 km
Eccentricity
0.73425
Inclination
27.9969°
RAAN
98.6216°
Arg. of periapsis
209.9122°
True anomaly
151.2139°
Mean anomaly
74.9259°
Eccentric anomaly
113.50463°
Mean motion
0.48238 °/min
Orbital period
746.3 mins
BSTAR
0.27458
Loading maneuver chart data...
Computing Atmospheric mass density...
Loading historical data...
Loading historical data...
Loading historical data...
Loading historical data...
Loading historical data...
Loading historical data...
Loading historical data...

Documentation

Showing up to 5 results
|